Weather reports worldwide

Advertisment
Fair Isle, United Kingdom (3008): temperature & dewpoint: 30.07.2020 03:00:00 - 05.08.2020 03:00:00 (BST)Fair Isle, United Kingdom (3008): temperature -20cm & temperature -100cm: 30.07.2020 03:00:00 - 05.08.2020 03:00:00 (BST)Fair Isle, United Kingdom (3008): wind speed & gusts: 30.07.2020 03:00:00 - 05.08.2020 03:00:00 (BST)Fair Isle, United Kingdom (3008): wind direction: 30.07.2020 03:00:00 - 05.08.2020 03:00:00 (BST)Fair Isle, United Kingdom (3008): reduced air pressure: 30.07.2020 03:00:00 - 05.08.2020 03:00:00 (BST)Fair Isle, United Kingdom (3008): visibility: 30.07.2020 03:00:00 - 05.08.2020 03:00:00 (BST)Fair Isle, United Kingdom (3008): precipitation: 30.07.2020 03:00:00 - 05.08.2020 03:00:00 (BST)
Date & Time tt [°C] td [°C] tt -20cm [°C] tt -100cm [°C] ff [km/h] ff [kn] fx [km/h] fx [kn] dd ppp [hPa] vv [km] rr [mm]
05.08.2020 03:00:00 - - - - - - - - - - - -
05.08.2020 02:00:00 12,8 12,7 - - 24 13 - - SW 992,9 4,9 0,0
05.08.2020 01:00:00 12,5 12,4 - - 15 8 - - SW 992,5 2,9 0,0
05.08.2020 00:00:00 12,3 12,3 - - 13 7 - - SSW 992,5 3,1 0,2
04.08.2020 23:00:00 12,2 12,2 - - 18 10 - - S 992,4 1,5 1,4
04.08.2020 22:00:00 12,0 12,0 - - 22 12 - - S 992,9 0,3 1,4
04.08.2020 21:00:00 11,7 11,7 - - 29 16 - - SSE 993,8 0,7 1,2
04.08.2020 20:00:00 11,7 11,7 - - 34 18 52 28 SSE 994,5 3,9 1,0
04.08.2020 19:00:00 11,7 11,6 - - 37 20 57 31 SE 995,9 5 1,0
04.08.2020 18:00:00 11,7 11,6 - - 41 22 57 31 SE 997,2 6 0,8
04.08.2020 17:00:00 11,6 11,5 - - 42 23 59 32 SSE 998,6 5 0,2
04.08.2020 16:00:00 12,1 10,9 - - 48 26 65 35 SSE 999,9 11 0,0
04.08.2020 15:00:00 12,3 10,9 - - 35 19 52 28 SE 1001,4 16 0,0
04.08.2020 14:00:00 12,5 10,7 - - 31 17 46 25 SE 1002,7 19 0,0
04.08.2020 13:00:00 13,2 10,8 - - 29 16 46 25 SE 1003,3 30 0,0
04.08.2020 12:00:00 12,9 11,0 - - 21 11 - - SE 1004,8 35 0,0
04.08.2020 11:00:00 12,6 10,7 - - 26 14 - - SSE 1005,7 24 0,0
04.08.2020 10:00:00 12,8 11,1 13,2 12,7 21 11 - - S 1006,4 30 0,0
04.08.2020 09:00:00 12,6 11,7 - - 22 12 - - S 1007,3 18 0,0
04.08.2020 08:00:00 11,8 10,8 - - 16 9 - - S 1007,6 30 0,0
04.08.2020 07:00:00 11,6 10,8 - - 15 8 - - SSW 1008,2 25 0,0
04.08.2020 06:00:00 11,5 10,7 - - 22 12 - - SSW 1008,5 23 0,0
04.08.2020 05:00:00 11,1 10,9 - - 22 12 - - SW 1008,7 10 0,4
04.08.2020 04:00:00 11,1 11,0 - - 21 11 - - WSW 1009,3 17 0,4
04.08.2020 03:00:00 11,4 11,0 - - 22 12 - - SW 1009,5 2,2 0,0
04.08.2020 02:00:00 11,0 10,8 - - 22 12 - - SW 1009,8 22 0,2
04.08.2020 01:00:00 11,5 11,0 - - 26 14 - - SW 1010,2 13 0,0
04.08.2020 00:00:00 11,3 10,8 - - 21 11 - - SW 1010,3 14 0,2
03.08.2020 23:00:00 11,3 11,0 - - 26 14 - - SW 1010,4 19 0,0
03.08.2020 22:00:00 11,4 10,7 - - 22 12 - - WSW 1010,5 13 0,0
03.08.2020 21:00:00 11,9 9,7 - - 29 16 - - WSW 1010,5 28 0,0
03.08.2020 20:00:00 12,2 10,2 - - 24 13 - - WSW 1010,5 19 0,0
03.08.2020 19:00:00 13,1 9,6 - - 26 14 - - WSW 1010,4 25 0,0
03.08.2020 18:00:00 12,8 9,1 - - 26 14 - - SW 1010,8 30 0,0
03.08.2020 17:00:00 12,3 10,0 - - 18 10 - - WSW 1010,9 23 0,0
03.08.2020 16:00:00 11,9 11,4 - - 18 10 - - W 1010,9 20 0,0
03.08.2020 15:00:00 13,0 11,0 - - 24 13 - - WSW 1010,8 29 0,0
03.08.2020 14:00:00 12,9 10,0 - - 26 14 - - WSW 1010,8 15 0,0
03.08.2020 13:00:00 13,2 10,6 - - 29 16 - - SW 1010,6 17 0,0
03.08.2020 12:00:00 13,1 10,6 - - 26 14 - - WSW 1010,6 16 0,0
03.08.2020 11:00:00 11,4 10,5 - - 28 15 46 25 SW 1010,6 18 0,0
03.08.2020 10:00:00 12,4 10,4 13,4 12,5 24 13 - - SW 1010,4 15 0,0
03.08.2020 09:00:00 12,4 10,1 - - 28 15 - - SW 1010,4 11 0,0
03.08.2020 08:00:00 11,6 10,3 - - 21 11 - - SW 1010,4 13 0,0
03.08.2020 07:00:00 11,2 10,1 - - 22 12 - - WSW 1010,4 18 0,0
03.08.2020 06:00:00 11,1 9,9 - - 22 12 - - SW 1010,3 19 0,0
03.08.2020 05:00:00 11,1 10,0 - - 22 12 - - SW 1010,3 16 0,0
03.08.2020 04:00:00 11,0 9,9 - - 21 11 - - SW 1010,5 16 0,0
03.08.2020 03:00:00 11,0 10,0 - - 18 10 - - SW 1010,8 14 0,0
03.08.2020 02:00:00 10,7 9,6 - - 16 9 - - SW 1010,8 21 0,0
03.08.2020 01:00:00 10,7 9,6 - - 16 9 - - WSW 1010,8 15 0,0
03.08.2020 00:00:00 11,0 9,4 - - 15 8 - - W 1010,8 19 0,0
02.08.2020 23:00:00 11,2 10,0 - - 15 8 - - W 1010,8 15 0,0
02.08.2020 22:00:00 11,2 10,5 - - 16 9 - - WSW 1010,7 14 0,0
02.08.2020 21:00:00 11,6 10,5 - - 16 9 - - WSW 1010,5 10 0,0
02.08.2020 20:00:00 12,4 10,2 - - 21 11 - - WSW 1010,3 14 0,0
02.08.2020 19:00:00 12,8 10,6 - - 16 9 - - WSW 1010,2 15 0,0
02.08.2020 18:00:00 12,9 10,8 - - 16 9 - - WSW 1010,0 15 0,0
02.08.2020 17:00:00 13,7 11,1 - - 16 9 - - WSW 1009,9 22 0,0
02.08.2020 16:00:00 13,9 11,0 - - 21 11 - - WSW 1009,9 25 0,0
02.08.2020 15:00:00 13,7 11,3 - - 16 9 - - WSW 1010,0 26 0,0
02.08.2020 14:00:00 13,8 11,7 - - 18 10 - - WSW 1009,9 21 0,0
02.08.2020 13:00:00 13,5 11,7 - - 18 10 - - WSW 1009,7 30 0,0
02.08.2020 12:00:00 13,8 12,1 - - 15 8 - - WSW 1009,4 17 0,0
02.08.2020 11:00:00 12,8 11,6 - - 15 8 - - SSW 1009,4 15 0,0
02.08.2020 10:00:00 13,0 11,9 13,2 12,4 13 7 - - S 1009,2 30 0,0
02.08.2020 09:00:00 12,1 11,4 - - 9 5 - - S 1009,2 30 0,0
02.08.2020 08:00:00 11,6 10,8 - - 11 6 - - SSW 1009,2 19 0,0
02.08.2020 07:00:00 11,3 10,8 - - 8 4 - - SSW 1009,3 22 0,0
02.08.2020 06:00:00 11,2 10,5 - - 8 4 - - S 1009,5 9 0,0
02.08.2020 05:00:00 10,8 10,3 - - 11 6 - - S 1009,6 30 0,0
02.08.2020 04:00:00 11,2 10,9 - - 13 7 - - SSW 1009,9 14 0,0
02.08.2020 03:00:00 11,3 11,1 - - 11 6 - - SW 1010,2 11 0,0
02.08.2020 02:00:00 11,6 11,2 - - 18 10 - - SW 1010,3 13 0,0
02.08.2020 01:00:00 11,6 11,3 - - 11 6 - - SW 1010,5 12 0,0
02.08.2020 00:00:00 11,5 11,2 - - 9 5 - - S 1011,0 13 0,0
01.08.2020 23:00:00 11,3 11,1 - - 8 4 - - SSW 1011,0 11 0,0
01.08.2020 22:00:00 11,4 11,0 - - 4 2 - - SW 1011,2 11 0,0
01.08.2020 21:00:00 11,3 10,7 - - 8 4 - - SW 1011,1 9 0,0
01.08.2020 20:00:00 12,5 11,4 - - 8 4 - - WSW 1011,1 9 0,0
01.08.2020 19:00:00 13,1 11,4 - - 13 7 - - W 1010,8 17 0,0
01.08.2020 18:00:00 13,7 11,9 - - 13 7 - - W 1011,0 10 0,0
01.08.2020 17:00:00 13,4 11,6 - - 15 8 - - W 1011,0 10 0,0
01.08.2020 16:00:00 13,9 12,0 - - 16 9 - - W 1010,9 16 0,0
01.08.2020 15:00:00 14,0 12,3 - - 15 8 - - W 1010,7 16 0,0
01.08.2020 14:00:00 14,1 12,5 - - 18 10 - - W 1010,3 14 0,0
01.08.2020 13:00:00 13,5 12,2 - - 13 7 - - WSW 1010,0 17 0,0
01.08.2020 12:00:00 13,6 12,4 - - 15 8 - - W 1009,7 12 0,0
01.08.2020 11:00:00 13,2 12,0 - - 16 9 - - W 1009,1 13 0,0
01.08.2020 10:00:00 12,6 11,2 13,2 12,4 24 13 - - W 1008,6 12 0,0
01.08.2020 09:00:00 12,3 11,5 - - 24 13 - - WNW 1007,9 15 0,0
01.08.2020 08:00:00 11,7 11,4 - - 21 11 - - WNW 1007,7 14 0,2
01.08.2020 07:00:00 12,6 12,6 - - 13 7 - - W 1007,2 0,6 3,0
01.08.2020 06:00:00 12,1 12,1 - - 5 3 - - SSW 1006,8 1,0 2,8
01.08.2020 05:00:00 12,6 12,6 - - 13 7 - - SW 1006,0 1,0 1,4
01.08.2020 04:00:00 12,5 12,5 - - 15 8 - - SSE 1006,7 1,9 2,0
01.08.2020 03:00:00 13,0 12,6 - - 29 16 52 28 SSE 1007,1 6 0,6
01.08.2020 02:00:00 13,4 12,2 - - 29 16 46 25 SSE 1007,3 7 0,0
01.08.2020 01:00:00 13,8 12,2 - - 34 18 57 31 SSE 1007,3 8 0,0
01.08.2020 00:00:00 13,7 12,0 - - 34 18 48 26 SE 1007,0 10 0,0
31.07.2020 23:00:00 13,9 11,7 - - 29 16 - - SE 1007,1 13 0,0
31.07.2020 22:00:00 13,7 11,8 - - 29 16 - - SE 1007,5 10 0,0
31.07.2020 21:00:00 14,0 11,8 - - 31 17 48 26 SE 1008,0 10 0,0
31.07.2020 20:00:00 14,1 12,0 - - 34 18 52 28 SE 1007,5 10 0,0
31.07.2020 19:00:00 14,4 12,2 - - 29 16 - - SE 1008,0 9 0,0
31.07.2020 18:00:00 14,1 12,4 - - 31 17 54 29 SE 1008,3 9 0,0
31.07.2020 17:00:00 14,2 12,2 - - 29 16 52 28 SE 1009,1 12 0,0
31.07.2020 16:00:00 14,1 12,0 - - 37 20 54 29 SE 1009,4 13 0,0
31.07.2020 15:00:00 14,0 11,7 - - 35 19 55 30 SE 1010,0 11 0,0
31.07.2020 14:00:00 14,2 11,7 - - 39 21 55 30 SE 1010,6 10 0,0
31.07.2020 13:00:00 14,0 11,9 - - 39 21 54 29 SE 1011,2 14 0,0
31.07.2020 12:00:00 13,8 12,3 - - 24 13 50 27 ESE 1011,5 14 0,0
31.07.2020 11:00:00 13,6 12,2 - - 28 15 52 28 SE 1012,0 12 0,0
31.07.2020 10:00:00 13,1 12,3 12,9 12,4 26 14 48 26 SE 1012,2 11 0,0
31.07.2020 09:00:00 12,7 12,3 - - 35 19 46 25 SE 1012,5 10 0,0
31.07.2020 08:00:00 12,6 12,5 - - 24 13 - - SE 1012,9 8 0,0
31.07.2020 07:00:00 12,4 12,4 - - 28 15 46 25 SE 1013,3 6 0,0
31.07.2020 06:00:00 12,4 12,4 - - 31 17 48 26 SE 1013,3 2,3 0,0
31.07.2020 05:00:00 12,4 12,4 - - 34 18 46 25 SE 1013,7 7 0,0
31.07.2020 04:00:00 12,2 12,2 - - 21 11 - - ESE 1013,9 8 0,2
31.07.2020 03:00:00 12,1 12,1 - - 28 15 - - SE 1014,5 7 0,4
31.07.2020 02:00:00 12,0 11,8 - - 24 13 - - SE 1014,9 10 0,2
31.07.2020 01:00:00 11,9 11,3 - - 24 13 - - SE 1015,2 18 0,0
31.07.2020 00:00:00 11,7 10,7 - - 16 9 - - ESE 1015,5 30 0,0
30.07.2020 23:00:00 11,5 10,5 - - 13 7 - - ESE 1015,8 30 0,0
30.07.2020 22:00:00 11,2 10,2 - - 11 6 - - ESE 1015,8 30 0,0
30.07.2020 21:00:00 11,1 9,9 - - 16 9 - - SE 1016,1 40 0,0
30.07.2020 20:00:00 11,0 9,6 - - 11 6 - - SE 1016,1 40 0,0
30.07.2020 19:00:00 11,1 9,7 - - 9 5 - - SE 1016,2 40 0,0
30.07.2020 18:00:00 11,3 9,2 - - 9 5 - - SE 1016,4 40 0,0
30.07.2020 17:00:00 11,6 10,2 - - 13 7 - - S 1016,9 45 0,0
30.07.2020 16:00:00 11,7 10,2 - - 11 6 - - S 1016,5 50 0,0
30.07.2020 15:00:00 11,9 10,5 - - 5 3 - - W 1016,7 22 0,0
30.07.2020 14:00:00 11,8 9,9 - - 8 4 - - WNW 1016,5 40 0,0
30.07.2020 13:00:00 11,8 9,8 - - 11 6 - - W 1016,6 45 0,0
30.07.2020 12:00:00 11,5 10,0 - - 11 6 - - W 1016,6 40 0,0
30.07.2020 11:00:00 10,8 10,8 - - 11 6 - - WNW 1016,1 13 0,0
30.07.2020 10:00:00 10,7 10,7 12,9 12,5 18 10 - - WNW 1016,0 6 0,0
30.07.2020 09:00:00 10,5 10,5 - - 16 9 - - WNW 1015,8 5 0,0
30.07.2020 08:00:00 10,3 10,3 - - 21 11 - - WNW 1015,5 3,7 0,0
30.07.2020 07:00:00 10,2 10,2 - - 21 11 - - WNW 1015,1 8 0,0
30.07.2020 06:00:00 10,3 9,7 - - 24 13 - - WNW 1014,7 14 0,0
30.07.2020 05:00:00 10,1 9,2 - - 28 15 46 25 WNW 1014,3 17 0,0
30.07.2020 04:00:00 10,2 9,2 - - 29 16 - - WNW 1014,0 15 0,0
30.07.2020 03:00:00 10,2 9,6 - - 29 16 - - WNW 1014,0 11 0,0

tt = temperature
td = dewpoint
tt -20cm = temperature -20cm
tt -100cm = temperature -100cm
ff = wind speed
fx = gusts
dd = wind direction
ppp = reduced air pressure
vv = visibility
rr = precipitation

Next stations